< < Back
Terminal Aerodrome Forecast


Current Version              Previous Versions:   1  2  3  4  5  6  7  8  9  

Terminal Aerodrome Forecast

395
FTUS44 KOHX 222300
TAFCSV
TAF
KCSV 222340Z 2300/2324 31010KT P6SM BKN035
     FM230900 35006KT P6SM SKC
     FM231500 03007KT P6SM SCT070=



Latest METAR

871
SAUS70 KWBC 230700 RRH
MTRCSV
METAR KCSV 230653Z AUTO 34005KT 10SM CLR 11/02 A2994 RMK AO2 SLP129
T01110017


USA.gov is the U.S. government's official web portal to all federal, state and local government web resources and services.